Regional Weather Roundup
Issued by NWS Charleston, WV

Home | Current Version | Previous Version | Graphics & Text | Print | Product List | Glossary On
Versions: 1 2 3 4 5 6 7 8 9 10 11 12 13 14 15 16 17 18 19 20 21 22 23 24 25 26 27 28 29 30 31 32 33 34 35 36 37 38 39 40 41 42 43 44 45 46 47 48 49 50
072
ASUS41 KRLX 230910
RWRRLX
West Virginia Regional Weather Roundup
National Weather Service Charleston WV
500 AM EDT WED AUG 23 2017

Note: "fair" indicates few or no clouds below 12,000 feet with no
significant weather and/or obstructions to visibility.

WVZ003-231000-
Northern Panhandle of West Virginia

CITY           SKY/WX    TMP DP  RH WIND       PRES   REMARKS
WHEELING       CLOUDY    65  62  90 NW6       29.92R
$$

WVZ009-231000-
Northwest West Virginia

CITY           SKY/WX    TMP DP  RH WIND       PRES   REMARKS
PARKERSBURG    CLOUDY    68  64  87 NW3       29.95S
$$

WVZ006-231000-
Western West Virginia

CITY           SKY/WX    TMP DP  RH WIND       PRES   REMARKS
HUNTINGTON     CLOUDY    71  68  90 VRB3      29.93S
$$

WVZ015-231000-
West Central West Virginia

CITY           SKY/WX    TMP DP  RH WIND       PRES   REMARKS
CHARLESTON     LGT RAIN  71  68  90 NW8       29.93R
$$

WVZ022-031-231000-
North Central West Virginia

CITY           SKY/WX    TMP DP  RH WIND       PRES   REMARKS
CLARKSBURG     CLOUDY    70  64  81 NW6       29.91S
MORGANTOWN     CLOUDY    69  65  86 NW3       29.92S
$$

WVZ025-035-042-045-231000-
Southern West Virginia

CITY           SKY/WX    TMP DP  RH WIND       PRES   REMARKS
BECKLEY        LGT RAIN  68  66  93 W5        29.98S
LOGAN          CLOUDY    70  68  94 CALM      29.95S
BLUEFIELD      CLOUDY    66  64  93 W8        30.01F
LEWISBURG      CLOUDY    69  65  88 SW3       29.96F
$$

WVZ047-231000-
Northern Mountains of West Virginia

CITY           SKY/WX    TMP DP  RH WIND       PRES   REMARKS
ELKINS         MOCLDY    68  64  87 CALM      29.95R
$$

WVZ052-231000-
Eastern Panhandle of West Virginia

CITY           SKY/WX    TMP DP  RH WIND       PRES   REMARKS
MARTINSBURG    MOCLDY    72  67  84 W6        29.83R
PETERSBURG     MOCLDY    71  70  98 CALM      29.88S
$$




USA.gov is the U.S. government's official web portal to all federal, state and local government web resources and services.